Flag for U.S.A. Weather past 2 weeks in Atlanta, Georgia, U.S.A.

Now
74 °F

Fog.


Feels Like: 71 °F
Forecast: 74 / 92 °F
Wind: No wind

Location: Fulton County Airport-Brown Field

Current Time: Jul 28, 2015 at 2:36:33 AM

Latest Report: Jul 28, 2015 at 1:53 AM


Visibility: 5 mi

Pressure: 29.96 "Hg

Humidity: 94%

Dew point: 72 °F

Location of AtlantaLocation

Historic Weather in Atlanta — Graph

°F

Atlanta temperature yesterday

Maximum temperature yesterday: 93 °F (at 1:53 PM)
Minimum temperature yesterday: 72 °F (at 5:53 AM)
Average temperature yesterday: 81 °F

Past Weeks' High & Low Weather Summary

 TemperatureHumidityPressure
High94 °F (Jul 17, 5:53 PM)94% (Jul 18, 3:53 AM)30.06 "Hg (Jul 18, 3:53 AM)
Low70 °F (Jul 15, 5:53 AM)41% (Jul 17, 3:53 PM)29.74 "Hg (Jul 14, 5:53 PM)
Average81 °F72%29.92 "Hg
* Reported Jul 13 12:53 AM — Jul 28 12:53 AM, Atlanta, Weather by CustomWeather, © 2015

Note: Actual official high and low records may vary slightly from our data, if they occured in-between our weather recording intervals... More about our weather records

Advertising

Atlanta weather history for previous 24 hours

 ConditionsComfort  
Time TempWeatherWind HumidityBarometerVisibility
12:53 AM
Tue, Jul 28
76 °FClear.No wind91%29.97 "Hg10 mi
11:53 PM
Mon, Jul 27
76 °FClear.No wind94%29.96 "Hg9 mi
10:53 PM76 °FClear.No wind94%29.95 "Hg10 mi
9:53 PM78 °FClear.No wind87%29.94 "Hg10 mi
8:53 PM78 °FSunny.No wind87%29.93 "Hg10 mi
7:53 PM79 °FSunny.3 mph79%29.93 "Hg10 mi
6:53 PM79 °FScattered clouds.8 mph77%29.94 "Hg10 mi
5:59 PM78 °FThunderstorms. Fog.8 mph84%29.96 "Hg9 mi
4:53 PM92 °FPassing clouds.5 mph46%29.90 "Hg10 mi
3:53 PM92 °FScattered clouds.No wind47%29.93 "Hg10 mi
2:53 PM91 °FPartly sunny.7 mph49%29.94 "Hg10 mi
1:53 PM93 °FScattered clouds.6 mph47%29.96 "Hg10 mi
12:53 PM90 °FSunny.3 mph50%29.98 "Hg10 mi
11:53 AM89 °FScattered clouds.No wind55%30.00 "Hg10 mi
10:53 AM88 °FSunny.No wind54%29.99 "Hg10 mi
9:53 AM84 °FSunny.No wind65%30.00 "Hg10 mi
8:53 AM80 °FSunny.No wind79%29.99 "Hg10 mi
7:53 AM76 °FSunny.No wind85%29.98 "Hg9 mi
6:53 AM72 °FClear.No wind91%29.97 "Hg7 mi
5:53 AM72 °FClear.No wind93%29.95 "Hg8 mi
4:53 AM74 °FPassing clouds.No wind88%29.94 "Hg10 mi
3:53 AM73 °FClear.No wind90%29.93 "Hg10 mi
2:53 AM76 °FClear.No wind85%29.93 "Hg10 mi
Weather by CustomWeather, © 2015

See weather overviewHow to use our weather pages